User: anonymous   Login
Location: Campillo
(40.8621°N, 4.2488°W)
Time: 15:49:11
(UTC+00:00)
Language:

SL-08 ROCKET BODY - Orbit

View from above orbital plane
View from above orbital plane
View from above satellite
View from above satellite

Ground track
Ground track

The orbit data is extracted from the following two-line orbital elements,

1 28522U 05002B   21207.48277949  .00000050  00000-0  28273-4 0  9999
2 28522  82.9476 298.1827 0044329 302.9291  56.7613 13.89606862837412
Epoch (UTC): 26 July 2021 11:35:12
Eccentricity: 0.0044329
inclination: 82.9476°
perigee height: 897 km
apogee height: 962 km
right ascension of ascending node: 298.1827°
argument of perigee: 302.9291°
revolutions per day: 13.89606862
mean anomaly at epoch: 56.7613°
orbit number at epoch: 83741

The dashed part of the orbit path shows where the satellite is in the earth's shadow,  

DLR